Theta_e
306 305 305 305 305 306 306 306 307 307 309 311 314 317 319 325 327 333 336 339 342 341 342 341 339 338 336 342 345 345 344 342 340 333 334 330 330 327 320 315 313 312 311
305 305 304 305 305 305 305 306 306 306 307 310 312 316 319 325 326 334 338 341 338 340 342 342 342 341 338 338 343 344 343 341 336 328 324 324 327 324 321 314 314 312 311
304 304 303 303 304 304 304 305 305 306 307 309 312 316 318 326 328 336 338 339 339 340 343 341 341 343 345 341 342 343 343 340 337 329 324 323 321 321 316 315 314 312 311
303 303 303 303 303 303 303 304 305 306 307 309 311 316 319 325 334 336 338 338 339 341 342 341 341 340 343 347 343 342 341 336 332 329 324 320 321 318 317 315 313 312 310
303 302 302 302 303 303 304 304 305 306 307 308 311 317 321 328 335 336 336 336 338 340 340 341 341 339 339 346 345 341 337 332 329 326 323 320 320 317 316 314 311 311 310
302 302 302 302 303 303 303 303 305 304 305 307 310 314 323 332 335 335 335 334 333 335 337 342 341 341 338 343 346 344 341 332 328 326 323 321 321 319 317 314 311 310 309
302 302 302 302 302 302 303 303 303 304 304 305 309 315 322 332 335 331 331 333 333 333 338 340 341 341 341 342 344 344 340 338 341 330 324 323 321 320 317 314 313 312 311
301 301 301 301 301 302 302 303 304 304 304 305 309 313 318 327 334 335 334 331 331 330 331 334 342 344 342 342 340 338 337 335 335 332 334 329 327 321 320 317 314 313 312
300 300 300 301 301 302 303 303 304 304 304 306 309 313 318 324 334 334 333 330 331 328 334 335 340 342 342 342 336 331 329 328 328 330 333 332 328 322 319 316 314 314 312
300 300 300 301 302 303 303 304 305 305 305 306 311 316 318 321 331 333 333 333 332 330 336 340 342 341 342 342 338 331 327 327 327 329 327 326 326 322 319 319 316 316 315
299 300 300 302 303 303 305 307 308 306 307 311 314 316 320 323 330 332 333 333 333 334 335 338 340 341 343 342 343 338 334 330 327 328 326 325 322 320 319 319 317 317 317
299 300 301 302 303 306 311 311 309 309 311 315 318 321 323 327 331 330 331 332 333 333 333 336 337 342 344 343 344 337 332 330 325 324 321 319 319 319 318 319 318 318 319
299 300 302 302 304 307 309 311 311 311 316 315 314 316 326 323 325 330 329 331 332 333 334 335 337 341 339 339 340 335 330 326 322 321 320 320 320 319 318 318 319 319 319
300 301 301 301 304 305 308 307 307 305 306 307 307 307 326 323 321 322 328 330 330 330 331 333 328 329 328 329 329 326 325 326 323 323 320 318 318 318 318 319 320 319 318
300 300 300 302 302 303 304 305 306 304 303 303 303 302 324 323 321 323 324 326 330 330 324 320 319 320 318 318 321 322 323 323 322 319 317 316 317 316 316 320 319 317 316
300 299 299 301 301 301 301 301 302 302 304 303 303 301 308 322 323 324 327 327 330 327 322 321 321 320 319 319 319 319 319 320 319 318 318 317 316 315 314 315 316 315 311
299 298 298 299 299 299 299 299 299 300 302 303 305 306 308 317 325 327 329 326 323 327 325 323 322 321 319 318 319 318 318 318 318 318 317 317 315 314 313 311 310 309 304
298 297 297 297 296 296 296 297 298 298 299 300 301 304 307 312 320 321 325 325 324 323 323 324 321 319 318 318 318 318 317 317 317 317 317 317 315 312 312 311 307 304 302
298 296 295 295 295 295 295 296 296 296 297 298 298 303 307 308 312 315 318 320 321 322 321 322 322 319 317 318 318 317 317 317 316 316 317 317 315 313 312 311 308 304 302
297 296 295 295 294 294 294 294 294 294 295 295 296 296 300 306 307 310 315 318 319 317 318 320 320 319 317 317 317 317 317 317 316 316 316 316 314 312 311 310 308 304 303
298 296 296 295 294 293 293 293 293 293 293 293 294 295 298 300 302 307 310 313 315 317 317 317 316 316 316 316 316 316 316 316 315 315 315 314 313 311 310 310 307 306 303
298 297 296 295 294 293 293 293 293 293 293 293 293 294 296 298 300 302 307 310 312 314 315 315 316 316 316 316 316 316 315 315 315 314 314 313 312 310 310 309 308 304 302
297 297 296 295 295 294 294 293 293 292 292 292 292 293 294 295 296 300 302 307 310 312 313 314 315 315 315 316 316 316 315 315 314 314 314 313 312 310 309 308 305 303 301
297 296 296 296 296 296 295 294 293 292 292 292 292 293 293 294 295 297 300 304 307 309 311 312 313 313 314 315 315 315 315 314 313 314 314 313 313 310 308 306 304 303 300
297 297 296 296 296 295 295 294 293 293 292 292 292 292 293 293 294 295 297 300 303 306 308 309 311 312 313 313 314 314 314 314 313 312 312 312 311 310 307 305 304 304 303
299 298 298 297 296 295 294 294 294 293 293 292 293 293 293 293 294 294 295 297 298 300 303 306 308 310 311 312 312 313 312 311 311 311 312 311 309 307 305 303 303 302 300
Wind_Speed
24 27 26 26 30 31 31 32 33 35 36 36 37 37 42 43 41 44 44 38 47 51 35 38 39 36 31 31 35 33 30 25 10 6 18 32 34 34 29 24 23 22 18
24 27 26 28 29 31 32 32 32 38 38 35 36 38 44 44 42 47 44 37 42 39 40 37 38 38 34 32 34 32 30 28 25 16 22 29 34 36 31 28 25 22 20
26 24 28 28 29 31 33 34 34 36 38 37 36 39 44 40 53 46 46 43 46 42 36 38 39 37 31 36 37 34 32 32 29 24 17 25 28 37 34 29 27 24 21
25 26 29 28 28 32 35 35 34 35 35 36 38 38 44 44 44 36 40 37 35 37 36 39 41 40 35 36 39 37 31 31 29 26 26 24 30 32 35 33 26 26 24
25 26 28 30 31 33 32 35 34 34 34 34 37 36 42 47 29 39 37 35 29 34 37 38 38 40 41 39 41 38 36 30 29 28 24 25 25 31 31 26 27 30 25
26 27 29 30 31 32 33 34 33 35 34 33 36 35 35 29 26 40 39 41 34 29 33 29 38 37 39 41 41 37 45 40 32 27 25 30 31 33 29 34 31 25 10
26 28 29 29 31 32 32 33 33 33 33 32 35 34 33 25 31 31 35 31 33 39 31 35 36 36 43 42 41 42 43 48 48 46 37 34 33 41 37 34 34 29 18
26 28 29 30 32 31 31 32 32 30 30 29 32 33 34 32 27 34 38 32 27 28 27 43 37 38 42 46 45 43 42 43 47 47 47 52 46 48 49 38 36 27 18
25 28 31 32 32 32 30 32 30 28 28 26 28 33 26 35 22 34 38 31 32 26 35 52 50 41 45 47 47 41 39 39 41 40 42 41 44 46 42 37 35 30 12
28 31 33 33 31 32 33 32 30 25 26 26 29 28 29 33 28 30 32 20 22 13 7 51 52 45 48 47 46 42 36 38 39 27 27 32 36 41 44 41 44 32 23
31 31 32 31 33 34 33 28 21 22 23 25 27 30 30 34 27 27 40 22 17 14 12 21 39 37 38 42 43 45 45 45 38 32 33 31 33 42 41 35 41 40 30
31 30 30 33 34 31 28 19 19 18 17 21 27 28 23 17 26 26 35 24 21 23 17 20 24 28 38 48 45 43 40 46 39 36 32 29 32 35 34 38 38 34 34
30 29 30 33 33 30 29 25 21 18 14 17 22 20 8 16 17 18 29 29 23 24 29 24 22 26 40 43 40 42 43 41 35 30 28 28 31 33 34 35 32 31 31
27 26 27 28 30 28 22 22 18 25 25 20 23 19 10 12 17 24 30 28 29 26 22 17 21 23 30 35 37 41 38 42 38 34 30 27 30 34 37 37 36 32 29
24 23 24 23 24 27 23 20 21 18 20 24 27 25 3 9 11 16 14 28 33 32 36 31 28 28 24 28 27 26 31 34 31 30 34 30 31 31 31 35 37 34 24
22 22 23 22 23 23 23 29 26 27 24 26 29 27 11 16 8 2 9 20 35 40 31 29 22 22 20 23 21 19 23 29 25 28 29 31 32 33 31 33 34 32 31
20 22 20 20 21 21 22 20 19 30 26 28 32 39 39 21 11 4 14 26 28 31 26 27 22 21 19 18 21 21 23 28 30 29 30 28 30 29 34 28 30 33 28
20 21 19 18 19 20 20 19 20 18 17 25 32 35 37 25 14 11 25 25 14 18 20 24 22 20 23 23 22 22 23 27 27 28 28 28 31 33 29 28 29 30 30
19 21 19 17 17 17 19 17 18 20 20 22 29 35 33 23 18 12 7 11 5 10 16 15 22 21 24 25 22 22 25 27 27 27 29 29 30 33 29 27 29 32 35
18 20 21 19 19 18 18 17 18 17 17 18 21 25 30 22 17 16 12 5 8 13 16 17 19 19 21 25 25 24 26 29 29 27 27 27 29 30 30 30 32 33 30
16 19 20 18 19 18 19 20 18 18 18 18 19 24 22 18 17 14 12 8 7 11 14 18 19 21 24 26 27 27 28 26 26 26 28 27 30 29 30 27 26 26 25
16 17 18 18 18 19 18 17 19 20 19 19 20 22 22 19 17 14 13 11 8 8 11 18 22 24 26 28 28 27 27 26 27 28 28 30 31 31 29 30 31 29 32
17 17 17 18 18 18 18 19 19 18 18 20 20 20 21 19 19 17 15 11 9 7 6 6 11 15 17 20 23 29 31 33 36 36 34 32 30 31 33 32 31 35 38
15 15 15 17 20 18 18 19 20 21 20 20 21 22 22 21 21 20 16 14 12 10 8 6 7 9 12 15 19 23 26 30 34 37 39 36 30 32 30 29 32 29 32
13 13 13 14 16 17 17 18 18 19 20 20 20 22 23 24 25 25 21 19 16 15 12 10 8 8 8 10 15 20 23 27 31 33 31 33 35 37 35 34 34 34 32
8 10 9 9 11 15 16 16 17 19 19 20 21 23 23 24 26 27 26 24 21 19 17 14 11 9 10 11 14 17 21 26 31 36 36 38 36 35 35 34 37 34 34
Wind_Direction
315 313 305 298 297 293 292 290 291 293 290 288 288 287 290 273 279 241 221 207 183 203 208 202 201 202 200 201 196 187 181 175 157 132 162 180 180 183 181 181 179 175 176
312 304 300 299 295 292 291 291 294 292 290 287 287 286 285 273 286 235 215 207 194 198 206 206 199 201 196 197 189 183 182 181 153 149 150 164 179 186 177 176 177 176 178
311 303 303 299 296 293 294 293 293 293 291 290 286 283 290 273 276 214 206 197 193 200 203 207 203 194 189 192 193 185 185 183 173 159 149 163 161 178 171 174 176 173 179
308 303 301 300 297 294 292 292 291 292 291 291 290 285 283 270 229 208 201 189 195 197 209 208 205 201 191 194 193 185 176 165 162 153 145 155 158 168 171 164 162 172 171
305 305 302 300 295 294 292 295 292 293 292 292 294 295 298 291 224 201 192 192 184 199 207 217 214 205 194 196 193 180 166 156 152 146 146 156 159 165 171 168 159 168 171
307 305 302 299 297 296 295 294 293 295 294 294 293 296 290 265 214 194 189 192 197 196 213 207 213 213 200 197 200 194 190 166 157 154 169 169 174 174 171 165 153 157 167
308 304 302 299 296 295 296 296 295 294 295 294 293 299 299 271 213 188 157 163 195 201 207 213 212 209 201 192 200 195 191 196 195 175 168 176 173 179 170 165 168 168 172
308 305 303 301 296 294 293 290 288 291 291 292 293 298 302 302 230 214 210 203 209 210 213 222 200 194 185 189 184 181 187 190 191 184 190 187 189 180 185 178 169 158 167
309 305 305 302 298 296 292 290 290 291 290 289 289 292 296 305 255 213 210 211 210 233 261 205 198 188 189 192 175 169 173 184 187 192 195 194 192 183 173 161 155 153 144
311 309 307 304 302 301 295 289 285 284 285 287 286 289 293 291 249 217 203 200 210 201 175 174 179 184 186 190 177 167 164 178 181 184 183 185 187 181 179 184 166 162 147
311 314 311 313 315 307 295 286 282 280 278 285 286 291 288 282 231 217 197 194 183 177 180 146 171 182 182 190 192 182 180 180 179 174 174 172 172 174 176 178 177 171 168
318 320 323 328 323 323 328 304 304 284 285 291 293 294 286 234 212 210 204 185 182 159 167 172 180 186 189 190 191 181 177 174 166 162 156 157 162 171 178 184 183 180 186
325 331 339 332 333 341 1 7 8 8 355 339 332 316 179 188 174 192 176 171 177 170 181 189 181 188 178 175 182 179 173 161 157 153 158 167 170 172 176 179 181 188 188
330 338 343 332 340 347 352 14 10 14 11 357 352 339 168 141 152 168 181 179 168 168 176 154 144 149 162 167 160 159 161 169 167 163 162 164 163 167 171 177 173 180 179
334 347 347 341 347 344 349 355 1 8 7 8 3 336 285 113 140 146 165 163 153 150 143 128 124 130 137 133 145 158 164 165 161 159 156 158 156 162 168 175 171 168 164
341 354 345 342 347 349 351 347 357 359 3 12 22 6 40 97 165 196 210 181 165 146 137 127 132 143 135 140 153 155 157 158 160 159 164 162 162 166 165 168 170 173 159
347 355 349 353 353 353 352 358 346 352 6 8 13 24 30 51 92 104 179 164 145 158 133 120 134 148 138 165 168 169 165 165 165 165 164 167 163 161 158 160 161 158 151
353 359 360 1 351 351 351 357 352 359 355 349 3 18 32 35 69 114 150 160 145 108 116 135 134 150 166 174 175 173 166 162 164 166 166 166 167 163 162 162 159 152 152
1 6 4 6 3 355 356 0 5 2 3 358 3 15 17 35 67 95 89 127 160 108 132 141 163 167 172 178 176 175 168 166 168 170 168 167 170 165 166 165 161 160 156
9 12 12 10 12 7 3 5 7 11 6 8 10 7 5 20 28 37 46 83 134 117 136 160 176 175 168 173 172 174 165 170 171 170 170 168 167 167 162 161 161 159 163
8 10 14 21 21 16 10 5 7 13 15 13 9 12 21 20 9 12 45 62 129 155 163 164 167 169 169 167 170 169 166 167 168 166 164 162 163 159 160 156 154 156 151
24 21 19 18 18 20 15 14 9 12 18 16 10 16 29 36 36 35 20 38 65 116 155 168 170 178 177 176 175 168 167 164 167 165 163 162 162 163 159 154 155 158 158
43 30 27 22 17 13 15 19 21 24 23 20 18 18 20 26 37 50 53 54 50 81 108 148 170 176 184 184 187 184 177 180 180 173 164 164 164 159 158 156 158 159 158
55 49 38 27 23 18 19 19 19 19 23 25 22 22 23 25 33 50 60 70 79 82 92 115 145 167 178 189 193 191 191 189 185 182 178 166 160 158 157 158 159 160 157
67 65 58 37 25 20 19 25 25 27 24 23 26 28 31 34 37 42 55 66 75 85 89 97 117 141 171 192 199 198 202 200 191 176 166 164 163 166 161 158 162 163 166
66 61 53 46 41 36 32 33 31 31 28 26 31 36 38 41 45 49 54 64 71 79 87 97 110 134 160 176 189 196 193 192 184 177 174 171 162 159 158 157 160 156 159